Flag for Canada Weather past 2 weeks in Aklavik, Northwest Territories, Canada

19 °F

Light snow. Mostly cloudy.

Feels Like: 9 °F
Forecast: 8 / 19 °F
Wind: 9 mph from Northwest

Location: Inuvik

Current Time: Nov 27, 2015 at 5:19:54 AM

Latest Report: Nov 27, 2015 at 5:00 AM

Visibility: 5 mi

Pressure: 30.06 "Hg

Humidity: 86%

Dew point: 16 °F

Location of AklavikLocation

Historic Weather in Aklavik — Graph


Aklavik temperature yesterday

Maximum temperature yesterday: 25 °F (at 2:00 PM)
Minimum temperature yesterday: 18 °F (at 4:00 AM)
Average temperature yesterday: 21 °F

Past Weeks' High & Low Weather Summary

High28 °F (Nov 25, 2:00 PM)100% (Nov 26, 5:00 AM)30.36 "Hg (Nov 26, 5:00 AM)
Low-17 °F (Nov 15, 1:00 PM)60% (Nov 20, 6:00 AM)29.25 "Hg (Nov 12, 12:00 PM)
Average2 °F83%29.84 "Hg
* Reported Nov 12 4:00 AM — Nov 27 4:00 AM, Aklavik, Weather by CustomWeather, © 2015

Note: Actual official high and low records may vary slightly from our data, if they occured in-between our weather recording intervals... More about our weather records


Aklavik weather history for previous 24 hours

Time TempWeatherWind HumidityBarometerVisibility
4:00 AM
Fri, Nov 27
19 °FLight snow. Mostly cloudy.8 mph86%30.02 "Hg10 mi
3:00 AM19 °FLight snow. Overcast.15 mph86%29.97 "Hg5 mi
2:00 AM18 °FLight snow. Overcast.14 mph93%29.92 "Hg5 mi
1:00 AM18 °FLight snow. Overcast.14 mph93%29.87 "Hg5 mi
12:00 AM18 °FLight snow. Overcast.10 mph93%29.83 "Hg15 mi
11:00 PM
Thu, Nov 26
18 °FLight snow. Mostly cloudy.10 mph93%29.79 "Hg6 mi
10:00 PM19 °FLight snow. Mostly cloudy.9 mph93%29.77 "Hg6 mi
9:00 PM19 °FLight snow. Mostly cloudy.9 mph93%29.74 "Hg3 mi
8:00 PM19 °FLight snow. Mostly cloudy.10 mph100%29.71 "Hg3 mi
7:00 PM21 °FLight snow. Mostly cloudy.9 mph100%29.68 "Hg2 mi
6:00 PM25 °FLight snow. Mostly cloudy.6 mph93%29.67 "Hg2 mi
5:00 PM25 °FLight snow. Ice fog.No wind100%29.67 "Hg1 mi
4:00 PM25 °FLight snow. Mostly cloudy.3 mph100%29.67 "Hg2 mi
3:00 PM25 °FLight snow. Mostly cloudy.5 mph100%29.67 "Hg2 mi
2:00 PM25 °FLight snow. Mostly cloudy.6 mph93%29.68 "Hg4 mi
1:00 PM23 °FLight snow. Overcast.7 mph93%29.69 "Hg6 mi
12:00 PM23 °FLight mixture of precip. Mostly cloudy.8 mph93%29.69 "Hg10 mi
11:00 AM21 °FMostly cloudy.8 mph93%29.70 "Hg15 mi
10:00 AM21 °FMostly cloudy.9 mph93%29.72 "Hg15 mi
9:00 AM19 °FCold.8 mph93%29.73 "Hg15 mi
8:00 AM21 °FOvercast.6 mph86%29.74 "Hg15 mi
7:00 AM21 °FOvercast.9 mph93%29.75 "Hg15 mi
6:00 AM18 °FOvercast.8 mph93%29.76 "Hg15 mi
5:00 AM18 °FOvercast.7 mph100%29.77 "Hg15 mi
Weather by CustomWeather, © 2015

See weather overviewHow to use our weather pages